Location: Arthurs Seat
(13.1500°N, 59.6000°W)
Time: 12:59:47
(UTC+00:00)

Meteor 1-27 Rocket - Pass Details

Date: 25 August 2019
Orbit: 830 x 910 km, 81.3° (Epoch: 16 September)

Event Time Altitude Azimuth Distance (km) Brightness Sun altitude
Rises 22:46:36 0° 350° (N) 3,458 7.2 -8.6°
Reaches altitude 10° 22:49:04 10° 347° (NNW) 2,508 6.5 -9.2°
Maximum altitude 22:54:42 67° 266° (W) 924 4.2 -10.5°
Drops below altitude 10° 23:00:13 10° 184° (S) 2,456 6.0 -11.8°
Sets 23:02:38 0° 181° (S) 3,382 6.7 -12.4°
